[TLELIST] Archives

 

[TLELIST] Current TLEs

May 15th 2026 PDT

0 HST 1 20580U 90037B 26134.69359843 .00004465 00000-0 14011-3 0 9996 2 20580 28.4753 309.4175 0002090 119.7913 240.2891 15.30378185783439 0 ISS (ZARYA) 1 25544U 98067A 26135.16618096 .00004382 00000-0 87007-4 0 9997 2 25544 51.6313 103.5621 0007452 60.7339 299.4393 15.49219006566637 0 CXO 1 25867U 99040B 26137.63980620 .00000640 00000-0 00000-0 0 9993 2 25867 55.7295 117.4600 7892195 310.4750 359.8236 0.37807696 17216 ...Continue Reading

[TLELIST] Current TLEs

May 14th 2026 PDT

0 HST 1 20580U 90037B 26133.91105606 .00004775 00000-0 15035-3 0 9997 2 20580 28.4754 314.7628 0002132 112.2486 247.8336 15.30373445783310 0 ISS (ZARYA) 1 25544U 98067A 26134.19858747 .00005122 00000-0 10032-3 0 9994 2 25544 51.6312 108.3512 0007536 56.9254 303.2457 15.49211692566485 0 CXO 1 25867U 99040B 26134.99575802 .00000704 00000-0 00000-0 0 9992 2 25867 55.6591 117.5844 7896930 310.4386 359.9851 0.37808652 17195 ...Continue Reading

[TLELIST] Current TLEs

May 13th 2026 PDT

0 HST 1 20580U 90037B 26133.19372359 .00004351 00000-0 13638-3 0 9995 2 20580 28.4756 319.6625 0002153 105.4031 254.6803 15.30366798783202 0 ISS (ZARYA) 1 25544U 98067A 26133.16648102 .00004986 00000-0 97915-4 0 9995 2 25544 51.6312 113.4597 0007515 53.2822 306.8856 15.49201863566327 0 CXO 1 25867U 99040B 26134.99575802 .00000704 00000-0 00000-0 0 9992 2 25867 55.6591 117.5844 7896930 310.4386 359.9851 0.37808652 17195 ...Continue Reading

[TLELIST] Current TLEs

May 12th 2026 PDT

0 HST 1 20580U 90037B 26132.21553854 .00004520 00000-0 14199-3 0 9999 2 20580 28.4756 326.3439 0002185 96.7718 263.3127 15.30359319783059 0 ISS (ZARYA) 1 25544U 98067A 26132.19887560 .00004713 00000-0 93039-4 0 9991 2 25544 51.6312 118.2489 0007476 49.7974 310.3668 15.49191856566178 0 CXO 1 25867U 99040B 26134.99575802 .00000704 00000-0 00000-0 0 9992 2 25867 55.6591 117.5844 7896930 310.4386 359.9851 0.37808652 17195 ...Continue Reading

[TLELIST] Current TLEs

May 12th 2026 PDT

0 HST 1 20580U 90037B 26132.21553854 .00004520 00000-0 14199-3 0 9999 2 20580 28.4756 326.3439 0002185 96.7718 263.3127 15.30359319783059 0 ISS (ZARYA) 1 25544U 98067A 26132.19887560 .00004713 00000-0 93039-4 0 9991 2 25544 51.6312 118.2489 0007476 49.7974 310.3668 15.49191856566178 0 CXO 1 25867U 99040B 26134.99575802 .00000704 00000-0 00000-0 0 9992 2 25867 55.6591 117.5844 7896930 310.4386 359.9851 0.37808652 17195 ...Continue Reading

[TLELIST] Current TLEs

May 11th 2026 PDT

0 HST 1 20580U 90037B 26130.91128385 .00004942 00000-0 15600-3 0 9997 2 20580 28.4758 335.2524 0002203 85.6374 274.4473 15.30349034782858 0 ISS (ZARYA) 1 25544U 98067A 26131.16675675 .00005444 00000-0 10622-3 0 9997 2 25544 51.6310 123.3566 0007470 46.3627 313.7980 15.49181925566014 0 CXO 1 25867U 99040B 26132.35181578 .00000778 00000-0 00000-0 0 9994 2 25867 55.5870 117.7083 7898886 310.4213 0.0914 0.37804510 17184 ...Continue Reading

[TLELIST] Current TLEs

May 10th 2026 PDT

0 HST 1 20580U 90037B 26129.80266005 .00005313 00000-0 16829-3 0 9992 2 20580 28.4760 342.8246 0002190 75.4822 284.6017 15.30338732782687 0 ISS (ZARYA) 1 25544U 98067A 26130.19913920 .00006212 00000-0 12008-3 0 9991 2 25544 51.6310 128.1454 0007453 42.8467 317.3101 15.49169801565863 0 CXO 1 25867U 99040B 26132.35181578 .00000778 00000-0 00000-0 0 9994 2 25867 55.5870 117.7083 7898886 310.4213 0.0914 0.37804510 17184 ...Continue Reading

[TLELIST] Current TLEs

May 9th 2026 PDT

0 HST 1 20580U 90037B 26128.82445620 .00006178 00000-0 19696-3 0 9990 2 20580 28.4761 349.5058 0002174 66.2001 293.8822 15.30329702782539 0 ISS (ZARYA) 1 25544U 98067A 26128.97347854 .00006654 00000-0 12812-3 0 9994 2 25544 51.6310 134.2107 0007399 38.6382 321.5134 15.49152986565672 0 CXO 1 25867U 99040B 26129.70737146 .00000792 00000-0 00000-0 0 9993 2 25867 55.5364 117.7999 7900392 310.4423 0.0547 0.37799268 17171 ...Continue Reading

[TLELIST] [TLELIST] Current TLEs

May 9th 2026 PDT

0 HST 1 20580U 90037B 26128.82445620 .00006178 00000-0 19696-3 0 9990 2 20580 28.4761 349.5058 0002174 66.2001 293.8822 15.30329702782539 0 ISS (ZARYA) 1 25544U 98067A 26128.97347854 .00006654 00000-0 12812-3 0 9994 2 25544 51.6310 134.2107 0007399 38.6382 321.5134 15.49152986565672 0 CXO 1 25867U 99040B 26129.70737146 .00000792 00000-0 00000-0 0 9993 2 25867 55.5364 117.7999 7900392 310.4423 0.0547 0.37799268 17171 ...Continue Reading

[TLELIST] Current TLEs

May 8th 2026 PDT

0 HST 1 20580U 90037B 26127.97667409 .00005999 00000-0 19110-3 0 9997 2 20580 28.4762 355.2958 0002158 58.4789 301.6018 15.30319964782401 0 ISS (ZARYA) 1 25544U 98067A 26128.19937109 .00004920 00000-0 96926-4 0 9999 2 25544 51.6308 138.0417 0007476 35.9089 324.2400 15.49139257565554 0 CXO 1 25867U 99040B 26129.70737146 .00000792 00000-0 00000-0 0 9993 2 25867 55.5364 117.7999 7900392 310.4423 0.0547 0.37799268 17171 ...Continue Reading
  • This mailing list is a public mailing list - anyone may join or leave, at any time.
  • This mailing list is announce-only.

International Space Station (ISS) / Hubble Space Telescope (HST) / Chandra X-Ray Observatory Orbital Data via EMAIL

Privacy Policy:

Private list